HUSKYSAT-1 (45119 NORAD) Tracking and Keplerian Element Data

This shows tracking and keplerian element data for the satellite.

Feedback or suggestion? Click here.




ElementValue
Catalog45119
NameHUSKYSAT-1
Epoch Orbit323
Epoch Day52.86692814
Epoch Year2020
RAAN206.5121
Inclination51.6418
Eccentricity0.0012316
Argument of Perigee357.0009
Mean Anonmoly3.0897
Mean Motion15.33146026
Decay Rate1.276E-05
L11 45119U 19071J 20052.86692814 .00001276 00000-0 50810-4 0 9995
L22 45119 51.6418 206.5121 0012316 357.0009 3.0897 15.33146026 3237

Live tracking and technical data element details for HUSKYSAT-1 (NORAD 45119). HUSKYSAT-1 can be tracked NOW for your location showing map with azimuth and elevation plus other details from your city location.

Track the satellite on the map from your city or location and see movement details for azimuth, elevation, latitude, longitude, range, height, and movement on the map or in text.







IsCatalogInMostPopularTable: catalog: 45119, numindb: 6
Update: records affected: 1



GetName: 45119 HUSKYSAT-1

Hit Count: updated at: Wed, 26 Feb 2020 16:48:55 GMT